Location: Eschertshofen
(49.3064°N, 11.5756°E)
Time: 22:30:40
(UTC+00:00)

Meteor 2-5 Rocket - Pass Details

Date: 18 September 2020
Orbit: 833 x 912 km, 81.2° (Epoch: 20 October)

Event Time Altitude Azimuth Distance (km) Brightness Sun altitude
Rises 18:37:39 0° 353° (N) 3,411 7.2 -13.3°
Reaches altitude 10° 18:40:19 10° 3° (N) 2,481 6.3 -13.7°
Maximum altitude 18:45:22 33° 67° (ENE) 1,407 4.5 -14.5°
Enters shadow 18:48:04 22° 113° (ESE) 1,790 4.8 -14.9°
